CW0774 Weather Reports


time (UTC)temp
C
wind
direction
speed
KPH
gust
KPH
rain 1hr
cm
rain 24hr
cm
rain mn
cm
humidity
%
barometer
mb
20260506014911 13 177 8.0 16.1 0.00 0.00 0.00 79 1013.5
20260506014410 13 223 1.6 14.5 0.00 0.00 0.00 78 1013.4
20260506013911 13 183 4.8 12.9 0.00 0.00 0.00 78 1013.5
20260506012910 14 230 4.8 12.9 0.00 0.00 0.00 78 1013.3
20260506012410 14 191 8.0 12.9 0.00 0.00 0.00 78 1013.4
20260506011910 14 100 3.2 12.9 0.00 0.00 0.00 78 1013.5
20260506010911 14 184 6.4 20.9 0.00 0.00 0.00 77 1013.3
20260506010411 14 168 1.6 20.9 0.00 0.00 0.00 77 1013.5
20260506005410 14 91 3.2 14.5 0.00 0.00 0.00 77 1013.0
20260506004910 14 176 3.2 12.9 0.00 0.00 0.00 76 1013.0
20260506004410 14 245 6.4 11.3 0.00 0.00 0.00 76 1012.9
20260506003910 14 256 4.8 11.3 0.00 0.00 0.00 76 1012.9
20260506003411 15 82 4.8 19.3 0.00 0.00 0.00 76 1012.7
20260506002911 15 158 6.4 22.5 0.00 0.00 0.00 76 1012.5
20260506002411 15 198 9.7 22.5 0.00 0.00 0.00 75 1012.1
20260506001911 15 196 8.0 22.5 0.00 0.00 0.00 75 1011.9
20260506001411 15 240 8.0 14.5 0.00 0.00 0.00 75 1011.9
20260506000411 15 241 1.6 16.1 0.00 0.00 0.00 75 1011.9
20260505235910 15 226 9.7 16.1 0.00 0.00 0.00 76 1011.8
20260505235410 15 204 4.8 12.9 0.00 0.00 0.00 76 1012.0
20260505234910 15 224 4.8 12.9 0.00 0.00 0.00 77 1012.2
20260505234410 15 125 4.8 16.1 0.00 0.00 0.00 78 1012.2
20260505233910 14 132 6.4 19.3 0.00 0.00 0.00 79 1012.1
20260505233411 14 108 6.4 19.3 0.00 0.00 0.00 80 1012.0
20260505232911 13 184 9.7 20.9 0.00 0.00 0.00 80 1012.1
20260505230911 13 104 6.4 16.1 0.00 0.00 0.00 80 1010.9
20260505230411 13 218 3.2 19.3 0.00 0.00 0.00 80 1010.7
20260505225410 13 213 8.0 19.3 0.00 0.00 0.00 79 1010.6
20260505223910 13 129 4.8 22.5 0.00 0.00 0.00 78 1010.2
20260505223411 13 138 9.7 24.1 0.00 0.00 0.00 78 1010.0
20260505222910 13 197 9.7 27.4 0.00 0.00 0.00 77 1009.9
20260505222410 13 166 8.0 33.8 0.00 0.00 0.00 77 1009.7
20260505221910 13 192 11.3 33.8 0.00 0.00 0.00 77 1009.5
20260505220911 14 202 11.3 32.2 0.00 0.00 0.00 76 1009.6
20260505220412 14 203 9.7 37.0 0.00 0.00 0.00 75 1009.6
20260505215911 14 195 14.5 37.0 0.00 0.00 0.00 75 1009.7
20260505215410 14 193 8.0 25.7 0.00 0.00 0.00 74 1009.6
20260505214410 15 119 11.3 24.1 0.00 0.00 0.00 73 1009.3
20260505213910 15 254 9.7 24.1 0.00 0.00 0.00 73 1009.3
20260505213410 15 44 9.7 29.0 0.00 0.00 0.00 72 1009.3
20260505212910 15 126 14.5 38.6 0.00 0.00 0.00 72 1009.2
20260505212411 15 162 11.3 38.6 0.00 0.00 0.00 71 1009.1
20260505211910 16 145 11.3 37.0 0.00 0.00 0.00 70 1009.2
20260505211411 16 178 11.3 37.0 0.00 0.00 0.00 69 1009.2
20260505210910 16 134 11.3 27.4 0.00 0.00 0.00 69 1009.3
20260505205411 16 194 11.3 32.2 0.00 0.00 0.00 69 1009.4
20260505204910 16 178 9.7 32.2 0.00 0.00 0.00 69 1009.3
20260505203911 16 194 11.3 25.7 0.00 0.00 0.00 68 1009.3
20260505203411 16 166 8.0 25.7 0.00 0.00 0.00 69 1009.3
20260505202911 16 231 8.0 25.7 0.00 0.00 0.00 68 1009.3
20260505201912 16 110 9.7 33.8 0.00 0.00 0.00 68 1009.6
20260505201410 17 149 11.3 27.4 0.00 0.00 0.00 67 1009.7
20260505200411 17 255 11.3 37.0 0.00 0.00 0.00 67 1009.7
20260505195911 17 176 9.7 24.1 0.00 0.00 0.00 67 1009.7
20260505195410 17 358 9.7 29.0 0.00 0.00 0.00 67 1009.7
20260505194910 17 148 9.7 29.0 0.00 0.00 0.00 67 1009.8
20260505194410 17 74 8.0 25.7 0.00 0.00 0.00 67 1009.9
20260505193911 17 180 12.9 25.7 0.00 0.00 0.00 67 1010.0
20260505193411 17 192 9.7 25.7 0.00 0.00 0.00 66 1010.0
20260505192910 17 179 9.7 25.7 0.00 0.00 0.00 66 1010.2
20260505191910 18 153 9.7 22.5 0.00 0.00 0.00 65 1010.5
20260505191410 18 215 9.7 25.7 0.00 0.00 0.00 65 1010.5
20260505190911 18 209 4.8 25.7 0.00 0.00 0.00 65 1010.6
20260505190411 18 181 11.3 25.7 0.00 0.00 0.00 64 1010.6
20260505185412 18 154 9.7 25.7 0.00 0.00 0.00 64 1010.5
20260505184911 18 224 6.4 22.5 0.00 0.00 0.00 65 1010.6
20260505184411 18 115 8.0 22.5 0.00 0.00 0.00 65 1010.6
20260505183411 18 224 11.3 25.7 0.00 0.00 0.00 65 1010.9
20260505182910 18 141 9.7 25.7 0.00 0.00 0.00 65 1011.0
20260505182412 18 174 9.7 25.7 0.00 0.00 0.00 64 1011.1
20260505181911 18 137 9.7 25.7 0.00 0.00 0.00 64 1010.9
20260505181411 18 133 8.0 33.8 0.00 0.00 0.00 64 1011.0
20260505180911 18 212 11.3 33.8 0.00 0.00 0.00 64 1010.9
20260505180410 18 165 9.7 22.5 0.00 0.00 0.00 64 1010.9
20260505175911 18 125 8.0 24.1 0.00 0.00 0.00 64 1010.9
20260505175410 18 225 8.0 24.1 0.00 0.00 0.00 64 1010.9
20260505174411 18 156 9.7 32.2 0.00 0.00 0.00 64 1011.3
20260505173911 18 203 9.7 32.2 0.00 0.00 0.00 64 1011.2
20260505173410 18 206 11.3 29.0 0.00 0.00 0.00 63 1011.5
20260505172910 18 155 8.0 22.5 0.00 0.00 0.00 64 1011.5
20260505172411 18 174 11.3 22.5 0.00 0.00 0.00 63 1011.6
20260505171411 18 157 8.0 20.9 0.00 0.00 0.00 64 1011.6
20260505170910 18 177 11.3 20.9 0.00 0.00 0.00 65 1011.6
20260505165910 18 176 8.0 22.5 0.00 0.00 0.00 66 1011.7
20260505165411 17 178 11.3 22.5 0.00 0.00 0.00 67 1011.8
20260505164911 17 163 11.3 22.5 0.00 0.00 0.00 66 1011.8
20260505164410 17 201 11.3 25.7 0.00 0.00 0.00 66 1012.0
20260505163910 17 171 4.8 25.7 0.00 0.00 0.00 67 1012.0
20260505163411 17 167 6.4 19.3 0.00 0.00 0.00 67 1012.1
20260505161411 17 191 4.8 20.9 0.00 0.00 0.00 69 1012.4
20260505160910 17 122 9.7 20.9 0.00 0.00 0.00 69 1012.6
20260505160411 17 192 9.7 20.9 0.00 0.00 0.00 71 1012.6
20260505152911 15 183 11.3 25.7 0.00 0.00 0.00 79 1013.2
20260505152411 14 104 8.0 25.7 0.00 0.00 0.00 80 1013.4
20260505151911 13 135 6.4 16.1 0.00 0.00 0.00 83 1013.5
20260505151411 13 206 6.4 14.5 0.00 0.00 0.00 83 1013.5
20260505150910 13 232 3.2 12.9 0.00 0.00 0.00 83 1013.6
20260505150410 13 152 3.2 12.9 0.00 0.00 0.00 83 1013.7
20260505140411 12 117 8.0 20.9 0.00 0.00 0.00 86 1013.1
20260505034411 13 148 3.2 20.9 0.00 0.00 0.00 68 1012.6
20260505033910 13 137 8.0 25.7 0.00 0.00 0.00 68 1012.6
20260505033410 13 136 8.0 25.7 0.00 0.00 0.00 68 1012.5
20260505032910 13 193 4.8 19.3 0.00 0.00 0.00 69 1012.4
20260505032410 13 206 8.0 20.9 0.00 0.00 0.00 70 1012.4
20260505031910 13 154 9.7 20.9 0.00 0.00 0.00 72 1012.4
20260505031409 12 129 4.8 14.5 0.00 0.00 0.00 74 1012.4